Tracking 30995 objects as of 5-Jul-2025
HD Live streaming from Space Station
objects crossing your sky now

ONEWEB-0578

Track ONEWEB-0578 now!
10-day predictions
ONEWEB-0578 is classified as:


NORAD ID: 56067
Int'l Code: 2023-043X
Perigee: 1,183.6 km
Apogee: 1,186.2 km
Inclination: 87.9 °
Period: 108.9 minutes
Semi major axis: 7555 km
RCS: Unknown
Launch date: March 26, 2023
Source: United Kingdom (UK)
Launch site: SRIHARIKOTA (SRI)
Your satellite tracking list
Your tracking list is empty




NASA's NSSDC Master Catalog

Two Line Element Set (TLE):
1 56067U 23043X   25185.88417342  .00000961  00000-0  22944-2 0  9993
2 56067  87.9269 313.2517 0001730  99.1427 260.9902 13.21820004112353
Source of the keplerian elements: AFSPC